Rbgn^[z[y[W
メイン
   新天体発見情報
     Comet P/2015 J3 = P/2021 B1 (NEOWISE)
投稿するにはまず登録を

スレッド表示 | 新しいものから 前のトピック | 次のトピック | 下へ
投稿者 スレッド
佐藤裕久
投稿日時: 2021-1-25 18:40
モデレータ
登録日: 2005-6-12
居住地: 日本
投稿: 2622
オンライン
Comet P/2015 J3 = P/2021 B1 (NEOWISE)

E. Schwab (Egelsbach, ドイツ)の通報によると、1月13日UT、スペイン、Calar Altoにある
0.8-m f/3 Schmidt反射望遠鏡で得た画像からP/2015 J3(CBET 4102を参照)を検出した。
この彗星は17日と18日に得た60秒露出12枚のスタックでは各夜とも恒星状であった。

検出位置は次のとおり、

     2021 UT             R.A. (2000) Decl.       Mag.   Observer
     Jan. 17.22558   14 30 43.90   - 6 05 58.5   20.4   Schwab
          17.23478   14 30 45.27   - 6 06 03.7   20.1     "
          17.24397   14 30 46.64   - 6 06 08.5   20.3     "
          18.21638   14 33 12.50   - 6 14 18.4   20.7     "
          18.22097   14 33 13.18   - 6 14 21.0   20.5     "
          18.22557   14 33 13.81   - 6 14 22.2   21.0     "

NK 3668およびICQ's 2020 Comet Handbookの中野主一氏の予報に対し、Delta(T)  
は、-0.023 dayであった。MPC 84024のG. V. Williamsの予報に対するDelta(T)は、
+0.014 dayであった。彗星年表2020の佐藤裕久の予報に対する修正値は、Delta(T) =
+0.03 dayであった。

MPCの連結軌道要素と位置推算表は次のとおり、

Orbital elements:
    P/2015 J3 (NEOWISE)                                                         
Epoch 2015 Feb. 27.0 TT = JDT 2457080.5                                         
T 2015 Mar. 3.76427 TT                                  Rudenko                 
q   1.4940813            (2000.0)            P               Q                  
n   0.16076495     Peri.  129.29192     -0.48194721     +0.86626466             
a   3.3497198      Node   111.42138     -0.84112062     -0.41534026             
e   0.5539683      Incl.    8.12543     -0.24544449     -0.27762928             
P   6.13                                                                        
From 121 observations 2015 May 15-2021 Jan. 18, mean residual 0".5.             
                                                                                
    P/2015 J3 (NEOWISE)                                                         
Epoch 2021 Apr. 16.0 TT = JDT 2459320.5                                         
T 2021 Apr. 22.17366 TT                                 Rudenko                 
q   1.4920138            (2000.0)            P               Q                  
n   0.16090656     Peri.  129.45793     -0.48049670     +0.86704696             
a   3.3477541      Node   111.35087     -0.84180432     -0.41385957             
e   0.5543240      Incl.    8.13094     -0.24594391     -0.27739833             
P   6.13                                                                        
From 121 observations 2015 May 15-2021 Jan. 18, mean residual 0".5.             
                                                                                
    P/2015 J3 (NEOWISE)                                                         
Epoch 2027 June 4.0 TT = JDT 2461560.5                                          
T 2027 May 21.51281 TT                                  Rudenko                 
q   1.5725389            (2000.0)            P               Q                  
n   0.15861222     Peri.  142.17864     -0.52692886     +0.82711986             
a   3.3799605      Node    95.21862     -0.81979899     -0.43394879             
e   0.5347464      Incl.   11.32125     -0.22422218     -0.35715708             
P   6.21                                                                        
From 121 observations 2015 May 15-2021 Jan. 18, mean residual 0".5.             
                                                                                
    P/2015 J3 (NEOWISE)                                                         
Epoch 2020 Dec. 17.0 TT = JDT 2459200.5                                         
T 2021 Apr. 22.16290 TT                                 Rudenko                 
q   1.4920491            (2000.0)            P               Q                  
n   0.16087092     Peri.  129.45088     -0.48059892     +0.86699036             
a   3.3482485      Node   111.35117     -0.84175564     -0.41395908             
e   0.5543792      Incl.    8.13094     -0.24591081     -0.27742676             
P   6.13                                                                        
From 121 observations 2015 May 15-2021 Jan. 18, mean residual 0".5.             
                                                                                
Ephemeris:
Date    TT    R. A. (2000) Decl.     Delta      r    Elong.  Phase   m1
2020 12 23    13 30 34.3 -02 10 57   2.0217  1.9173    69.7    28.8  20.9
...
2021 01 07    14 05 40.1 -04 35 29   1.8049  1.8325    75.9    31.4  20.4
...
2021 01 15    14 25 11.7 -05 46 56   1.6945  1.7893    79.0    32.7  20.2
...
2021 01 21    14 40 12.5 -06 37 09   1.6146  1.7580    81.2    33.6  20.0
2021 01 22    14 42 44.5 -06 45 13   1.6015  1.7529    81.6    33.7  20.0
2021 01 23    14 45 17.0 -06 53 11   1.5886  1.7478    82.0    33.9  19.9
...
2021 01 29    15 00 42.9 -07 38 57   1.5125  1.7181    84.1    34.8  19.7
...
2021 02 06    15 21 45.6 -08 34 05   1.4157  1.6804    86.9    35.9  19.5
...
2021 02 21    16 02 24.3 -09 56 30   1.2498  1.6168    91.7    37.7  19.1

(MPEC 2021-B118、CBET 4920、oaa-comet 1527)

スレッド表示 | 新しいものから 前のトピック | 次のトピック | トップ

投稿するにはまず登録を
 
© 1999 Tsutomu Seki.